STARLINK-35473, 65937

Orbit data source: Space-Track

STARLINK-35473, 65937 is a payload satellite owned by SpaceX/Seattle (US) in LEO that was launched on Wed, 08 Oct 2025 UTC via an FALCON 9 launch vehicle from the Air Force Western Test Range (AFWTR). Payload-class satellites include a variety of spacecraft equipped with specific instruments for various scientific and technological missions. These include communications satellites like Starlink; space stations such as the ISS; scientific satellites like the Hubble; Earth observation satellites from companies like Planet Labs, Umbra, and HawkEye 360; GPS; miniature CubeSats for education and research; and military/defense satellites.

Loading next visibility...
Identifier
65937, 2025-225AD
Orbit
LEO
Country
Flag of USUS
Related business
Manufacturer
SpaceX/Seattle
Mission
Operational Commercial Communications
Bus & Motor
STARLINK V2MO, Unknown motor
Mass
575 kg wet, ~530 kg dry
Launch date (UTC)
2025-10-08 (8 months ago)
Launch vehicle
FALCON 9
Launch site
Air Force Western Test Range (AFWTR)
Object type
Payload
Rocket body
Debris
Shape & HBR
Box + 2 Pan, 17.7 m
Radar Cross Section
36.964 m², Large (>1 m²)

Expand to show TLE details & history
Last TLE update: 6 hours ago

TLE from 6 hours ago
0 STARLINK-35473
1 65937U 25225AD  26151.50002315  .00034465  00000-0  11711-2 0  9992
2 65937  53.1583 141.2537 0001469  75.8731 283.5223 15.30180819  5658
Epoch: 2026-05-31T12:00Z
TLE epoch observation values (Epoch: 2026-05-31T12:00:02.000Z)
Latitude
-0.5806°
Longitude
71.81194°
Altitude
476.014 km
Speed
7.629 km/s
True Right ascension
09h 23m 17s
True Declination
0° 34' 37"
Sunlit
Object was in daylight at epoch
Visualization orbit readout
Latitude
Unknown
Longitude
Unknown
Altitude
Unknown
Speed
Unknown
Apparent Right ascension
Unknown
Apparent Declination
Unknown
Sunlit
N/A
Visualization observer readout
Local Sidereal Time
03:18:56
Azimuth
Unknown
Elevation
Unknown
Doppler factor
Unknown
Orbital elements
Apogee altitude
476.536 km
Perigee altitude
474.522 km
Semi-major axis
6,853.666 km
Eccentricity
0.00015
Inclination
53.1583°
RAAN
141.2537°
Arg. of periapsis
75.8731°
True anomaly
283.50593°
Mean anomaly
283.5223°
Eccentric anomaly
283.51412°
Mean motion
3.82524 °/min
Orbital period
94.11 mins
BSTAR
0.0011711
Loading maneuver chart data...
Computing Atmospheric mass density...
Loading historical data...
Loading historical data...
Loading historical data...
Loading historical data...
Loading historical data...
Loading historical data...
Loading historical data...

Documentation

Showing up to 5 results
|